Simultaneous Nadir Overpasses (SNOs) Predictions

Prediction of SNOs between GOES-16 and NOAA-19 Satellite Orbit:

Table of predicted SNOs for the next 14.0 days since TLE Epoch: 3/2/2024
Index Date Time (GOES-16) GOES-16 Lat,Lon NOAA-19 Lat,Lon Distance(km) Time Diff (sec)
1 03/03/2024 01:59:19 -0.04, -75.20 0.26, -73.85 153.43 80
2 03/04/2024 01:47:08 -0.04, -75.20 0.98, -70.89 492.24 80
3 03/05/2024 14:21:40 0.04, -75.23 0.82, -78.53 377.70 80
4 03/06/2024 14:09:28 0.04, -75.23 0.09, -75.58 38.64 80
5 03/07/2024 13:54:36 0.04, -75.24 -0.58, -72.60 300.86 80
6 03/10/2024 02:16:58 -0.05, -75.23 -0.52, -77.29 234.45 80
7 03/11/2024 02:02:05 -0.05, -75.24 0.15, -74.32 105.55 80
8 03/12/2024 01:49:54 -0.04, -75.26 0.87, -71.36 445.67 80
9 03/13/2024 14:24:24 0.05, -75.30 0.92, -78.99 421.60 80
10 03/14/2024 14:12:12 0.04, -75.32 0.23, -76.02 81.12 80
11 03/15/2024 13:57:19 0.04, -75.33 -0.46, -73.06 259.51 80
